Погода в Малых Бикшихах

Россия / Чувашская Республика     55°29′07″N   47°30′52″E
темп.,
°C
ветер,
м/с
пор.,
м/с
влажн.,
%
обл.,
%
осадки,
мм/ч
давл.,
гПа
погр.,
м
23 сентября, чт
чт2300:00+8юв599382 0.0 1019415
03:00+7вюв4995100 0.0 1019309
06:00+8вюв41093100 0.0 1020377
09:00+10вюв61386100 0.0 1020558
12:00+10вюв51186100 0.9 1020471
15:00+10вюв61386100 1.0 1019510
18:00+9юв61293100 0.3 1019560
21:00+8юв71292100 1.1 1018736
24 сентября, пт
пт2400:00+8юв61395100 3.4 1016723
03:00+8юв61295100 5.1 1015676
06:00+8юв51296100 0.3 1014652
09:00+10юв51092100 0.4 1013545
12:00+10юв51084100 0.0 1012569
15:00+11ююв51077100 0.1 1012662
18:00+10ююв51197100 2.0 1012535
21:00+9ююв81489100 4.5 1012769
25 сентября, сб
сб2500:00+8ююв51192100 1.4 1012662
03:00+7вюв5994100 1.9 1011372
06:00+8юв3796100 0.4 1011387
09:00+8вюв3490100 0.5 1010317
12:00+9юв3384100 0.0 1010412
15:00+10в1179100 0.0 1010389
18:00+9в2286100 0.0 101154
21:00+8в1190100 0.0 101124
26 сентября, вс
вс2600:00+8всв1192100 0.0 101018
03:00+8в1193100 0.0 101123
06:00+7всв1193100 0.0 101021
09:00+9св2282100 0.0 1010297
12:00+11св2272100 0.0 1010587
15:00+12ссв346593 0.0 1010881
18:00+9ссв3581100 0.0 101093
21:00+7ссв3593100 0.0 1011102
27 сентября, пн
пн2700:00+6с3797100 0.0 1011200
03:00+8ссв5992100 0.0 1012461
06:00+7св61186100 0.0 1013555
09:00+8св61080100 0.1 1014751
12:00+6всв7889100 0.8 1018993
15:00+5всв61092100 1.1 1021801
18:00+5всв51182100 0.0 1023814
21:00+4св49835 0.0 1024254